Flight Track Log - Related Links

Times and Time Zones

All times are in EDT time to prevent confusion due to time zone crossing. See the EJA929 flight status page for this flight to view local times or setup timezone preferences in your user account.

Time Position Orientation Groundspeed Altitude Reporting Facility
EDT Latitude Longitude Course Direction KTS MPH feet Rate Location/Type
11:14PM 41.3128 -95.9064 193° South 170 196 1,700  Level Minneapolis Center
11:15PM 41.3322 -95.9044 North 224 258 3,100 4,615 Climbing Minneapolis Center
11:16PM 41.3758 -95.8356 50° Northeast 240 276 8,700 3,885 Climbing Minneapolis Center
11:17PM 41.3289 -95.7739 135° Southeast 260 299 11,000 2,213 Climbing Minneapolis Center
11:18PM 41.2472 -95.7564 171° South 289 333 13,200 2,262 Climbing Minneapolis Center
11:19PM 41.1550 -95.7328 169° South 327 376 15,600 1,869 Climbing Minneapolis Center
11:20PM 41.2966 -95.8961 193° South  Level Estimated
11:20PM 41.0633 -95.7111 170° South 332 382 17,000  Level Minneapolis Center
11:21PM 40.9689 -95.6894 170° South 339 390 19,200 2,115 Climbing Minneapolis Center
11:22PM 40.8750 -95.6664 169° South 342 394 21,300 2,066 Climbing Minneapolis Center
11:23PM 40.7772 -95.6428 170° South 350 403 23,400 2,104 Climbing Minneapolis Center
11:24PM 40.6572 -95.6142 170° South 360 414 26,000 2,104 Climbing Minneapolis Center
11:25PM 40.5558 -95.5892 169° South 367 422 28,100 2,066 Climbing Minneapolis Center
11:26PM 40.4553 -95.5650 170° South 368 423 30,200 2,066 Climbing Minneapolis Center
11:27PM 40.3553 -95.5872 190° South 367 422 32,300 2,016 Climbing Minneapolis Center
11:28PM 40.2550 -95.6339 200° South 379 436 34,300 1,587 Climbing Minneapolis Center
11:29PM 40.1536 -95.6797 199° South 380 437 35,500 843 Climbing Minneapolis Center
11:30PM 40.0458 -95.7278 199° South 391 450 36,000 246 Climbing Minneapolis Center
11:31PM 39.9319 -95.7828 200° South 418 481 36,000  Level Minneapolis Center
11:33PM 39.7872 -95.8469 199° South 409 471 36,000  Level Kansas City Center
11:34PM 39.6892 -95.8914 199° South 394 453 36,000  Level Kansas City Center
11:35PM 39.5897 -95.9358 199° South 395 455 36,000  Level Kansas City Center
11:36PM 39.4706 -95.9892 199° South 406 467 36,000  Level Kansas City Center
11:37PM 39.3675 -96.0350 199° South 410 472 36,000  Level Kansas City Center
11:38PM 39.2475 -96.0889 199° South 411 473 36,000  Level Kansas City Center
11:39PM 39.1442 -96.1339 199° South 411 473 36,000  Level Kansas City Center
11:40PM 39.0406 -96.1800 199° South 413 475 36,000  Level Kansas City Center
11:41PM 38.9192 -96.2342 199° South 414 476 36,000  Level Kansas City Center
11:42PM 38.8150 -96.2786 198° South 413 475 36,000  Level Kansas City Center
11:43PM 38.7125 -96.3253 200° South 409 471 36,000  Level Kansas City Center
11:44PM 38.5947 -96.3764 199° South 399 459 36,000  Level Kansas City Center
11:45PM 38.4967 -96.4189 199° South 391 450 36,000  Level Kansas City Center
11:46PM 38.3831 -96.4675 199° South 385 443 36,000  Level Kansas City Center
11:47PM 38.2922 -96.5078 199° South 386 444 36,000  Level Kansas City Center
11:48PM 38.1936 -96.5514 199° South 377 434 36,000  Level Kansas City Center
11:49PM 38.0944 -96.5931 198° South 375 432 36,000  Level Kansas City Center
11:50PM 37.9958 -96.6344 198° South 372 428 36,000  Level Kansas City Center
11:51PM 37.9014 -96.6747 199° South 360 414 36,000  Level Kansas City Center
11:52PM 37.8064 -96.7158 199° South 360 414 36,000  Level Kansas City Center
11:53PM 37.7047 -96.7589 199° South 380 437 36,000  Level Kansas City Center
11:54PM 37.5817 -96.8103 198° South 390 449 36,000  Level Kansas City Center
11:55PM 37.4761 -96.8556 199° South 399 459 36,000  Level Kansas City Center
11:56PM 37.3667 -96.9011 198° South 410 472 36,000  Level Kansas City Center
11:57PM 37.2544 -96.9478 198° South 417 480 36,000  Level Kansas City Center
11:58PM 37.1581 -97.0425 218° Southwest 442 509 36,000 -50 Level Kansas City Center
11:59PM 37.0636 -97.1500 222° Southwest 451 519 35,900 -942 Descending Kansas City Center
12:00AM 36.9550 -97.2269 210° Southwest 451 519 34,100 -1,820 Descending Kansas City Center
12:01AM 36.8325 -97.2533 190° South 450 518 32,200 -2,066 Descending Kansas City Center
12:02AM 36.7150 -97.2844 192° South 439 505 29,900 -2,459 Descending Kansas City Center
12:03AM 36.5994 -97.3111 190° South 427 491 27,200 -2,628 Descending Kansas City Center
12:04AM 36.4872 -97.3400 192° South 417 480 24,600 -2,579 Descending Kansas City Center
12:05AM 36.3781 -97.3664 191° South 405 466 22,000 -2,557 Descending Kansas City Center
12:06AM 36.2736 -97.3906 191° South 391 450 19,400 -2,678 Descending Kansas City Center
12:07AM 36.1739 -97.4183 193° South 375 432 16,600 -2,637 Descending Kansas City Center
12:09AM 35.9808 -97.4633 191° South 354 407 11,400 -2,209 Descending Kansas City Center
12:10AM 35.8817 -97.4878 191° South 313 360 9,900 -1,438 Descending Kansas City Center
12:11AM 35.8156 -97.5172 200° South 260 299 8,500 -1,377 Descending Kansas City Center
12:12AM 35.7514 -97.5511 203° Southwest 252 290 7,100 -793 Descending Kansas City Center
12:13AM 35.6928 -97.5842 205° Southwest 241 277 6,900 -744 Descending Kansas City Center
12:14AM 35.6356 -97.5897 185° South 217 250 5,600 -942 Descending Kansas City Center
12:15AM 35.5803 -97.5897 180° South 205 236 5,000 -1,171 Descending Kansas City Center
12:16AM 35.5269 -97.5922 182° South 171 197 3,200 -1,119 Descending Fort Worth Center
12:17AM 35.4853 -97.5919 180° South 150 173 2,800 -569 Descending Fort Worth Center
12:18AM 35.4500 -97.5944 183° South 125 144 2,100 -595 Descending Fort Worth Center
12:19AM 35.4164 -97.5919 177° South 111 128 1,600 -500 Descending Fort Worth Center

Login

Don't have an account? Register now (free) for customized features, flight alerts, and more!